Time,TemperatureF,DewpointF,PressureIn,WindDirection,WindDirectionDegrees,WindSpeedMPH,WindSpeedGustMPH,Humidity,HourlyPrecipIn,Conditions,Clouds,dailyrainin,SoftwareType,DateUTC
2013-06-20 00:02:00,72.0,68.0,-100.00,ENE,75,1.0,3.0,86,-99.99,,,-99.99,,2013-06-20 04:02:00,
2013-06-20 00:11:00,72.0,68.0,-100.00,ENE,70,2.0,4.0,87,-99.99,,,-99.99,,2013-06-20 04:11:00,
2013-06-20 00:23:00,71.0,68.0,-100.00,NNE,15,1.0,4.0,89,-99.99,,,-99.99,,2013-06-20 04:23:00,
2013-06-20 00:34:00,71.0,68.0,-100.00,NNE,30,0.0,2.0,89,-99.99,,,-99.99,,2013-06-20 04:34:00,
2013-06-20 00:43:00,71.0,68.0,-100.00,ENE,65,1.0,4.0,91,-99.99,,,-99.99,,2013-06-20 04:43:00,
2013-06-20 00:53:00,71.0,68.0,-100.00,ENE,65,0.0,2.0,91,-99.99,,,-99.99,,2013-06-20 04:53:00,
2013-06-20 01:02:00,71.0,68.0,-100.00,ENE,65,0.0,3.0,92,-99.99,,,-99.99,,2013-06-20 05:02:00,
2013-06-20 01:12:00,71.0,68.0,-100.00,ENE,65,0.0,3.0,92,-99.99,,,-99.99,,2013-06-20 05:12:00,
2013-06-20 01:22:00,70.0,68.0,-100.00,ENE,75,1.0,4.0,94,-99.99,,,-99.99,,2013-06-20 05:22:00,
2013-06-20 01:33:00,70.0,68.0,-100.00,ENE,60,1.0,4.0,95,-99.99,,,-99.99,,2013-06-20 05:33:00,
2013-06-20 01:44:00,70.0,68.0,-100.00,ENE,75,1.0,3.0,95,-99.99,,,-99.99,,2013-06-20 05:44:00,
2013-06-20 01:52:00,70.0,68.0,-100.00,ENE,70,1.0,2.0,95,-99.99,,,-99.99,,2013-06-20 05:52:00,
2013-06-20 02:02:00,70.0,68.0,-100.00,ENE,75,1.0,4.0,95,-99.99,,,-99.99,,2013-06-20 06:02:00,
2013-06-20 02:11:00,70.0,68.0,-100.00,NE,40,1.0,4.0,95,-99.99,,,-99.99,,2013-06-20 06:11:00,
2013-06-20 02:22:00,70.0,68.0,-100.00,East,85,2.0,4.0,95,-99.99,,,-99.99,,2013-06-20 06:22:00,
2013-06-20 02:34:00,70.0,68.0,-100.00,NE,55,1.0,4.0,94,-99.99,,,-99.99,,2013-06-20 06:34:00,
2013-06-20 02:43:00,70.0,69.0,-100.00,East,80,3.0,5.0,94,-99.99,,,-99.99,,2013-06-20 06:43:00,
2013-06-20 02:53:00,71.0,69.0,-100.00,East,85,2.0,6.0,94,-99.99,,,-99.99,,2013-06-20 06:53:00,
2013-06-20 03:01:00,70.0,69.0,-100.00,East,80,3.0,5.0,94,-99.99,,,-99.99,,2013-06-20 07:01:00,
2013-06-20 03:12:00,71.0,68.0,-100.00,ENE,60,1.0,5.0,93,-99.99,,,-99.99,,2013-06-20 07:12:00,
2013-06-20 03:22:00,71.0,68.0,-100.00,ENE,60,1.0,5.0,93,-99.99,,,-99.99,,2013-06-20 07:22:00,
2013-06-20 03:34:00,71.0,68.0,-100.00,ENE,70,1.0,5.0,93,-99.99,,,-99.99,,2013-06-20 07:34:00,
2013-06-20 03:44:00,70.0,68.0,-100.00,East,85,4.0,6.0,93,-99.99,,,-99.99,,2013-06-20 07:44:00,
2013-06-20 03:52:00,70.0,68.0,-100.00,ENE,75,4.0,6.0,93,-99.99,,,-99.99,,2013-06-20 07:52:00,
2013-06-20 04:02:00,70.0,68.0,-100.00,ENE,75,4.0,6.0,93,-99.99,,,-99.99,,2013-06-20 08:02:00,
2013-06-20 04:11:00,69.0,67.0,-100.00,East,90,1.0,6.0,94,-99.99,,,-99.99,,2013-06-20 08:11:00,
2013-06-20 04:22:00,69.0,68.0,-100.00,East,80,4.0,5.0,96,-99.99,,,-99.99,,2013-06-20 08:22:00,
2013-06-20 04:34:00,69.0,68.0,-100.00,ENE,75,4.0,6.0,98,-99.99,,,-99.99,,2013-06-20 08:34:00,
2013-06-20 04:43:00,69.0,68.0,-100.00,East,85,2.0,6.0,99,-99.99,,,-99.99,,2013-06-20 08:43:00,
2013-06-20 04:53:00,69.0,68.0,-100.00,ENE,75,3.0,6.0,99,-99.99,,,-99.99,,2013-06-20 08:53:00,
2013-06-20 05:02:00,68.0,68.0,-100.00,ENE,65,2.0,6.0,99,-99.99,,,-99.99,,2013-06-20 09:02:00,
2013-06-20 05:12:00,68.0,68.0,-100.00,ENE,65,2.0,6.0,99,-99.99,,,-99.99,,2013-06-20 09:12:00,
2013-06-20 05:22:00,68.0,68.0,-100.00,East,80,4.0,6.0,99,-99.99,,,-99.99,,2013-06-20 09:22:00,
2013-06-20 05:33:00,68.0,68.0,-100.00,ENE,75,4.0,6.0,99,-99.99,,,-99.99,,2013-06-20 09:33:00,
2013-06-20 05:42:00,68.0,68.0,-100.00,ENE,75,4.0,6.0,99,-99.99,,,-99.99,,2013-06-20 09:42:00,
2013-06-20 05:52:00,68.0,68.0,-100.00,East,80,4.0,8.0,99,-99.99,,,-99.99,,2013-06-20 09:52:00,
2013-06-20 06:01:00,68.0,68.0,-100.00,East,80,4.0,7.0,99,-99.99,,,-99.99,,2013-06-20 10:01:00,
2013-06-20 06:11:00,68.0,68.0,-100.00,East,95,2.0,7.0,99,-99.99,,,-99.99,,2013-06-20 10:11:00,
2013-06-20 06:22:00,68.0,68.0,-100.00,ENE,60,2.0,8.0,99,-99.99,,,-99.99,,2013-06-20 10:22:00,
2013-06-20 06:34:00,68.0,68.0,-100.00,SE,125,1.0,8.0,99,-99.99,,,-99.99,,2013-06-20 10:34:00,
2013-06-20 06:43:00,68.0,68.0,-100.00,East,90,4.0,6.0,99,-99.99,,,-99.99,,2013-06-20 10:43:00,
2013-06-20 06:53:00,68.0,68.0,-100.00,ENE,70,3.0,7.0,99,-99.99,,,-99.99,,2013-06-20 10:53:00,
2013-06-20 07:02:00,68.0,68.0,-100.00,ENE,75,2.0,6.0,99,-99.99,,,-99.99,,2013-06-20 11:02:00,
2013-06-20 07:12:00,68.0,68.0,-100.00,ENE,75,2.0,6.0,99,-99.99,,,-99.99,,2013-06-20 11:12:00,
2013-06-20 07:22:00,68.0,67.0,-100.00,ENE,75,4.0,7.0,99,-99.99,,,-99.99,,2013-06-20 11:22:00,
2013-06-20 07:34:00,68.0,68.0,-100.00,ENE,65,2.0,6.0,99,-99.99,,,-99.99,,2013-06-20 11:34:00,
2013-06-20 07:42:00,68.0,68.0,-100.00,ENE,70,5.0,8.0,99,-99.99,,,-99.99,,2013-06-20 11:42:00,
2013-06-20 07:53:00,68.0,68.0,-100.00,East,85,3.0,7.0,99,-99.99,,,-99.99,,2013-06-20 11:53:00,
2013-06-20 08:02:00,69.0,68.0,-100.00,East,90,2.0,6.0,99,-99.99,,,-99.99,,2013-06-20 12:02:00,
2013-06-20 08:12:00,69.0,69.0,-100.00,ENE,70,2.0,8.0,99,-99.99,,,-99.99,,2013-06-20 12:12:00,
2013-06-20 08:22:00,69.0,69.0,-100.00,ENE,70,2.0,8.0,99,-99.99,,,-99.99,,2013-06-20 12:22:00,
2013-06-20 08:34:00,69.0,69.0,-100.00,East,85,3.0,9.0,99,-99.99,,,-99.99,,2013-06-20 12:34:00,
2013-06-20 08:43:00,70.0,70.0,-100.00,East,80,2.0,7.0,99,-99.99,,,-99.99,,2013-06-20 12:43:00,
2013-06-20 08:53:00,71.0,70.0,-100.00,East,95,3.0,11.0,99,-99.99,,,-99.99,,2013-06-20 12:53:00,
2013-06-20 09:02:00,71.0,71.0,-100.00,East,85,6.0,10.0,99,-99.99,,,-99.99,,2013-06-20 13:02:00,
2013-06-20 09:11:00,71.0,71.0,-100.00,East,85,6.0,10.0,99,-99.99,,,-99.99,,2013-06-20 13:11:00,
2013-06-20 09:22:00,71.0,71.0,-100.00,East,90,4.0,10.0,99,-99.99,,,-99.99,,2013-06-20 13:22:00,
2013-06-20 09:33:00,71.0,71.0,-100.00,East,80,3.0,7.0,99,-99.99,,,-99.99,,2013-06-20 13:33:00,
2013-06-20 09:42:00,72.0,72.0,-100.00,East,90,1.0,6.0,99,-99.99,,,-99.99,,2013-06-20 13:42:00,
2013-06-20 09:53:00,72.0,72.0,-100.00,SSE,150,2.0,6.0,98,-99.99,,,-99.99,,2013-06-20 13:53:00,
2013-06-20 10:02:00,72.0,72.0,-100.00,East,85,3.0,8.0,98,-99.99,,,-99.99,,2013-06-20 14:02:00,
2013-06-20 10:11:00,72.0,72.0,-100.00,East,85,3.0,8.0,98,-99.99,,,-99.99,,2013-06-20 14:11:00,
2013-06-20 10:22:00,73.0,72.0,-100.00,ESE,115,2.0,9.0,96,-99.99,,,-99.99,,2013-06-20 14:22:00,
2013-06-20 10:32:00,75.0,72.0,-100.00,East,80,3.0,7.0,91,-99.99,,,-99.99,,2013-06-20 14:32:00,
2013-06-20 10:42:00,76.0,72.0,-100.00,NNE,15,1.0,7.0,87,-99.99,,,-99.99,,2013-06-20 14:42:00,
2013-06-20 10:53:00,76.0,71.0,-100.00,ENE,65,1.0,8.0,87,-99.99,,,-99.99,,2013-06-20 14:53:00,
2013-06-20 11:02:00,76.0,71.0,-100.00,SE,135,1.0,6.0,86,-99.99,,,-99.99,,2013-06-20 15:02:00,
2013-06-20 11:11:00,76.0,71.0,-100.00,East,80,5.0,10.0,84,-99.99,,,-99.99,,2013-06-20 15:11:00,
2013-06-20 11:22:00,77.0,71.0,-100.00,East,85,2.0,10.0,82,-99.99,,,-99.99,,2013-06-20 15:22:00,
2013-06-20 11:33:00,78.0,70.0,-100.00,SE,140,5.0,10.0,79,-99.99,,,-99.99,,2013-06-20 15:33:00,
2013-06-20 11:43:00,79.0,70.0,-100.00,East,80,6.0,11.0,74,-99.99,,,-99.99,,2013-06-20 15:43:00,
2013-06-20 11:53:00,80.0,70.0,-100.00,East,90,2.0,10.0,74,-99.99,,,-99.99,,2013-06-20 15:53:00,
2013-06-20 12:01:00,80.0,70.0,-100.00,SE,140,5.0,10.0,73,-99.99,,,-99.99,,2013-06-20 16:01:00,
2013-06-20 12:12:00,81.0,70.0,-100.00,East,80,4.0,11.0,70,-99.99,,,-99.99,,2013-06-20 16:12:00,
2013-06-20 12:22:00,80.0,69.0,-100.00,East,90,5.0,11.0,68,-99.99,,,-99.99,,2013-06-20 16:22:00,
2013-06-20 12:33:00,80.0,69.0,-100.00,East,80,4.0,11.0,68,-99.99,,,-99.99,,2013-06-20 16:33:00,
2013-06-20 12:43:00,81.0,69.0,-100.00,NE,40,1.0,11.0,67,-99.99,,,-99.99,,2013-06-20 16:43:00,
2013-06-20 12:52:00,81.0,69.0,-100.00,NE,40,1.0,11.0,67,-99.99,,,-99.99,,2013-06-20 16:52:00,
2013-06-20 13:02:00,83.0,69.0,-100.00,ESE,105,2.0,10.0,62,-99.99,,,-99.99,,2013-06-20 17:02:00,
2013-06-20 13:12:00,83.0,69.0,-100.00,ESE,105,2.0,10.0,62,-99.99,,,-99.99,,2013-06-20 17:12:00,
2013-06-20 13:22:00,81.0,68.0,-100.00,East,85,1.0,8.0,64,-99.99,,,-99.99,,2013-06-20 17:22:00,
2013-06-20 13:32:00,83.0,69.0,-100.00,East,85,4.0,12.0,63,-99.99,,,-99.99,,2013-06-20 17:32:00,
2013-06-20 13:43:00,83.0,69.0,-100.00,ENE,75,2.0,10.0,61,-99.99,,,-99.99,,2013-06-20 17:43:00,
2013-06-20 13:53:00,84.0,68.0,-100.00,NE,50,3.0,10.0,59,-99.99,,,-99.99,,2013-06-20 17:53:00,
2013-06-20 14:00:00,83.0,67.0,-100.00,SE,130,4.0,13.0,58,-99.99,,,-99.99,,2013-06-20 18:00:00,
2013-06-20 14:01:00,85.0,69.0,-100.00,East,80,6.0,13.0,58,-99.99,,,-99.99,,2013-06-20 18:01:00,
2013-06-20 14:11:00,82.0,67.0,-100.00,SE,130,4.0,10.0,59,-99.99,,,-99.99,,2013-06-20 18:11:00,
2013-06-20 14:22:00,82.0,67.0,-100.00,SE,130,4.0,10.0,59,-99.99,,,-99.99,,2013-06-20 18:22:00,
2013-06-20 14:33:00,84.0,68.0,-100.00,ESE,110,1.0,12.0,59,-99.99,,,-99.99,,2013-06-20 18:33:00,
2013-06-20 14:43:00,83.0,67.0,-100.00,SE,130,4.0,13.0,58,-99.99,,,-99.99,,2013-06-20 18:43:00,
2013-06-20 14:53:00,83.0,67.0,-100.00,SE,130,4.0,13.0,58,-99.99,,,-99.99,,2013-06-20 18:53:00,